VK2HIM-1 Weather Reports


time (UTC)temp
F
wind
direction
speed
knots
gust
knots
rain 1hr
in
rain 24hr
in
rain mn
in
humidity
%
barometer
mb
20260504000346 65 1 5.2 7.0 0.00 0.00 0.00 85 1016.0
20260503233349 65 67 4.3 8.7 0.00 0.00 0.00 88 1016.0
20260503230349 65 101 2.6 5.2 0.00 0.00 0.00 89 1016.2
20260503223349 67 75 1.7 2.6 0.00 0.00 0.00 85 1016.4
20260503220349 67 37 7.0 8.7 0.00 0.00 0.00 85 1015.9
20260503213349 68 30 6.1 10.4 0.00 0.00 0.00 82 1015.4
20260503210349 67 31 6.1 8.7 0.00 0.00 0.00 83 1015.1
20260503203349 67 54 4.3 6.1 0.00 0.00 0.00 83 1015.1
20260503200349 67 40 2.6 5.2 0.00 0.00 0.00 83 1015.0
20260503193349 67 56 4.3 7.8 0.00 0.00 0.00 85 1015.1
20260503190349 67 54 5.2 6.1 0.00 0.00 0.00 85 1015.3
20260503183348 67 26 0.9 1.7 0.00 0.00 0.00 84 1015.5
20260503180348 67 332 2.6 4.3 0.00 0.00 0.00 82 1015.5
20260503173345 66 83 0.0 0.0 0.00 0.00 0.00 84 1015.5
20260503170350 67 35 4.3 10.4 0.00 0.00 0.00 84 1015.2
20260503150350 67 8 4.3 7.0 0.00 0.00 0.00 86 1016.1
20260503130349 69 312 6.1 10.4 0.00 0.00 0.00 81 1016.6
20260503110348 69 320 0.9 0.9 0.00 0.00 0.00 83 1017.5
20260503090347 70 44 10.4 11.3 0.00 0.00 0.00 84 1017.2
20260503080346 70 46 8.7 12.2 0.00 0.00 0.00 83 1017.0
20260503070346 71 46 5.2 6.1 0.00 0.00 0.00 82 1017.2
20260503053346 73 36 11.3 17.4 0.00 0.00 0.00 78 1017.7
20260503050346 73 30 7.0 11.3 0.00 0.00 0.00 78 1017.9
20260503043346 74 48 7.0 11.3 0.00 0.00 0.00 76 1018.0
20260503040345 73 40 8.7 12.2 0.00 0.00 0.00 76 1018.2
20260503033348 73 45 7.8 14.8 0.00 0.00 0.00 76 1018.5
20260503030348 72 56 8.7 12.2 0.00 0.00 0.00 76 1019.1
20260503023348 72 66 11.3 17.4 0.00 0.00 0.00 75 1019.3
20260503020348 72 60 10.4 14.8 0.00 0.00 0.00 73 1019.7
20260503013348 73 51 12.2 17.4 0.00 0.00 0.00 71 1020.2
20260503010347 73 36 4.3 7.8 0.00 0.00 0.00 66 1020.6
20260503003347 72 31 8.7 15.6 0.00 0.00 0.00 67 1020.6